When you browse on this site, cookies collect data to enhance your experience and personalize the content and advertising you see.
Visit our Privacy Policy to learn more. By continuing to use the site, you agree to this use of cookies and data.
  • în România
  • Lista ţărilor
  • Pe 7 zile
  • Temperatura apei
  • Hartă satelitară
  • Meteo pe hartă
  • Widget-uri
  • user-avatar
    Intrare

    Meteo pe oră la Matrosovskiy

    Astăzi, 19 Februarie, Marţi

    Timp Temperatura Precipitaţii Vânt Presiune Umiditate
    00:00 -12°C° 0 mm 5 m/s 752 mmHg 84%
    01:00 -12°C° 0 mm 5 m/s 752 mmHg 85%
    02:00 -12°C° 0 mm 5 m/s 753 mmHg 86%
    03:00 -13°C° 0 mm 5 m/s 754 mmHg 87%
    04:00 -13°C° 0 mm 5 m/s 754 mmHg 88%
    05:00 -14°C° 0 mm 5 m/s 755 mmHg 89%
    06:00 -15°C° 0 mm 4 m/s 755 mmHg 91%
    07:00 -15°C° 0 mm 4 m/s 756 mmHg 90%
    08:00 -15°C° 0 mm 4 m/s 756 mmHg 90%
    09:00 -14°C° 0 mm 3 m/s 757 mmHg 90%
    10:00 -13°C° 0 mm 3 m/s 757 mmHg 88%
    11:00 -12°C° 0 mm 3 m/s 757 mmHg 87%
    12:00 -9°C° 0 mm 2 m/s 757 mmHg 85%
    13:00 -9°C° 0 mm 3 m/s 757 mmHg 84%
    14:00 -8°C° 0 mm 3 m/s 757 mmHg 84%
    15:00 -8°C° 0 mm 3 m/s 757 mmHg 84%
    16:00 -9°C° 0 mm 3 m/s 756 mmHg 86%
    17:00 -10°C° 0 mm 4 m/s 756 mmHg 87%
    18:00 -11°C° 0 mm 4 m/s 756 mmHg 89%
    19:00 -11°C° 0 mm 4 m/s 755 mmHg 89%
    20:00 -11°C° 0 mm 5 m/s 755 mmHg 89%
    21:00 -11°C° 0 mm 5 m/s 755 mmHg 89%
    22:00 -11°C° 0 mm 5 m/s 754 mmHg 89%
    23:00 -11°C° 0 mm 5 m/s 754 mmHg 89%

    Mâine, 20 Februarie, Miercuri

    Timp Temperatura Precipitaţii Vânt Presiune Umiditate
    00:00 -11°C° 0 mm 5 m/s 754 mmHg 90%
    01:00 -11°C° 0 mm 5 m/s 754 mmHg 90%
    02:00 -11°C° 0 mm 5 m/s 753 mmHg 90%
    03:00 -11°C° 0 mm 5 m/s 753 mmHg 90%
    04:00 -11°C° 0 mm 5 m/s 753 mmHg 89%
    05:00 -11°C° 0 mm 5 m/s 752 mmHg 89%
    06:00 -11°C° 0 mm 5 m/s 752 mmHg 88%
    07:00 -11°C° 0 mm 5 m/s 751 mmHg 88%
    08:00 -10°C° 0 mm 5 m/s 751 mmHg 87%
    09:00 -10°C° 0 mm 6 m/s 751 mmHg 87%
    10:00 -9°C° 0 mm 6 m/s 750 mmHg 85%
    11:00 -7°C° 0 mm 7 m/s 750 mmHg 83%
    12:00 -6°C° 0 mm 7 m/s 750 mmHg 82%
    13:00 -6°C° 0 mm 7 m/s 749 mmHg 82%
    14:00 -4°C° 0 mm 7 m/s 749 mmHg 81%
    15:00 -4°C° 0 mm 7 m/s 749 mmHg 81%
    16:00 -4°C° 0 mm 6 m/s 748 mmHg 83%
    17:00 -4°C° 0 mm 6 m/s 748 mmHg 84%
    18:00 -4°C° 0 mm 6 m/s 748 mmHg 86%
    19:00 -4°C° 0.1 mm 6 m/s 748 mmHg 87%
    20:00 -4°C° 0.1 mm 6 m/s 747 mmHg 89%
    21:00 -4°C° 0.1 mm 6 m/s 747 mmHg 91%
    22:00 -4°C° 0.1 mm 6 m/s 747 mmHg 91%
    23:00 -3°C° 0.1 mm 6 m/s 746 mmHg 92%

    Poimâine, 21 Februarie, Joi

    Timp Temperatura Precipitaţii Vânt Presiune Umiditate
    00:00 -3°C° 0.1 mm 6 m/s 746 mmHg 92%
    01:00 -3°C° 0.3 mm 6 m/s 745 mmHg 92%
    02:00 -3°C° 0.3 mm 6 m/s 745 mmHg 93%
    03:00 -2°C° 0.3 mm 6 m/s 745 mmHg 93%
    04:00 -2°C° 0.2 mm 6 m/s 744 mmHg 93%
    05:00 -1°C° 0.2 mm 5 m/s 744 mmHg 94%
    06:00 -1°C° 0.2 mm 5 m/s 744 mmHg 94%
    07:00 -1°C° 0.1 mm 5 m/s 743 mmHg 95%
    08:00 -1°C° 0.1 mm 5 m/s 743 mmHg 95%
    09:00 -1°C° 0.1 mm 5 m/s 743 mmHg 96%
    10:00 -1°C° 0.1 mm 5 m/s 743 mmHg 96%
    11:00 -1°C° 0.1 mm 5 m/s 742 mmHg 96%
    12:00 -1°C° 0.1 mm 5 m/s 742 mmHg 97%
    13:00 -1°C° 0.3 mm 5 m/s 742 mmHg 96%
    14:00 -1°C° 0.3 mm 5 m/s 741 mmHg 95%
    15:00 -1°C° 0.3 mm 5 m/s 741 mmHg 94%
    16:00 -4°C° 0.1 mm 5 m/s 741 mmHg 91%
    17:00 -4°C° 0.1 mm 4 m/s 741 mmHg 89%
    18:00 -7°C° 0.1 mm 4 m/s 741 mmHg 86%
    19:00 -5°C° 0.1 mm 4 m/s 741 mmHg 88%
    20:00 -6°C° 0.1 mm 5 m/s 741 mmHg 90%
    21:00 -5°C° 0.1 mm 5 m/s 742 mmHg 92%
    22:00 -5°C° 0.2 mm 5 m/s 741 mmHg 93%
    23:00 -5°C° 0.2 mm 4 m/s 741 mmHg 94%

    22 Februarie, Vineri

    Timp Temperatura Precipitaţii Vânt Presiune Umiditate
    00:00 -5°C° 0.2 mm 4 m/s 741 mmHg 94%
    01:00 -6°C° 0.3 mm 5 m/s 741 mmHg 93%
    02:00 -6°C° 0.3 mm 6 m/s 741 mmHg 92%
    03:00 -6°C° 0.3 mm 6 m/s 741 mmHg 91%
    04:00 -6°C° 0.2 mm 6 m/s 741 mmHg 91%
    05:00 -6°C° 0.2 mm 6 m/s 742 mmHg 91%
    06:00 -6°C° 0.2 mm 6 m/s 742 mmHg 91%
    07:00 -6°C° 0.1 mm 6 m/s 742 mmHg 89%
    08:00 -8°C° 0.1 mm 6 m/s 743 mmHg 88%
    09:00 -9°C° 0.1 mm 6 m/s 743 mmHg 87%
    10:00 -9°C° 0 mm 6 m/s 744 mmHg 86%
    11:00 -9°C° 0 mm 6 m/s 745 mmHg 86%
    12:00 -9°C° 0 mm 6 m/s 745 mmHg 85%
    13:00 -10°C° 0.1 mm 6 m/s 746 mmHg 85%
    14:00 -10°C° 0.1 mm 6 m/s 747 mmHg 84%
    15:00 -11°C° 0.1 mm 6 m/s 747 mmHg 84%
    16:00 -12°C° 0.1 mm 6 m/s 748 mmHg 84%
    17:00 -12°C° 0.1 mm 5 m/s 749 mmHg 85%
    18:00 -13°C° 0.1 mm 5 m/s 749 mmHg 86%
    19:00 -14°C° 0 mm 4 m/s 750 mmHg 87%
    20:00 -15°C° 0 mm 4 m/s 750 mmHg 88%
    21:00 -15°C° 0 mm 3 m/s 751 mmHg 90%
    22:00 -16°C° 0 mm 3 m/s 751 mmHg 91%
    23:00 -16°C° 0 mm 3 m/s 752 mmHg 92%

    23 Februarie, Sâmbătă

    Timp Temperatura Precipitaţii Vânt Presiune Umiditate
    00:00 -17°C° 0 mm 3 m/s 752 mmHg 93%
    01:00 -17°C° 0 mm 3 m/s 753 mmHg 94%
    02:00 -18°C° 0 mm 3 m/s 753 mmHg 94%
    03:00 -18°C° 0 mm 3 m/s 754 mmHg 95%
    04:00 -18°C° 0 mm 3 m/s 754 mmHg 95%
    05:00 -18°C° 0 mm 2 m/s 754 mmHg 95%
    06:00 -18°C° 0 mm 2 m/s 755 mmHg 96%
    07:00 -17°C° 0 mm 2 m/s 755 mmHg 95%
    08:00 -17°C° 0 mm 2 m/s 756 mmHg 95%
    09:00 -16°C° 0 mm 2 m/s 756 mmHg 95%
    10:00 -15°C° 0 mm 2 m/s 757 mmHg 93%
    11:00 -14°C° 0 mm 2 m/s 757 mmHg 91%
    12:00 -13°C° 0 mm 2 m/s 757 mmHg 89%
    13:00 -12°C° 0 mm 2 m/s 757 mmHg 87%
    14:00 -12°C° 0 mm 2 m/s 757 mmHg 85%
    15:00 -10°C° 0 mm 2 m/s 757 mmHg 83%
    16:00 -12°C° 0 mm 2 m/s 758 mmHg 86%
    17:00 -13°C° 0 mm 2 m/s 758 mmHg 88%
    18:00 -13°C° 0 mm 2 m/s 758 mmHg 91%
    19:00 -14°C° 0 mm 2 m/s 759 mmHg 92%
    20:00 -15°C° 0 mm 2 m/s 759 mmHg 92%
    21:00 -15°C° 0 mm 2 m/s 760 mmHg 93%
    22:00 -16°C° 0 mm 2 m/s 760 mmHg 94%
    23:00 -16°C° 0 mm 2 m/s 760 mmHg 94%

    24 Februarie, Duminică

    Timp Temperatura Precipitaţii Vânt Presiune Umiditate
    00:00 -16°C° 0 mm 2 m/s 760 mmHg 95%
    01:00 -17°C° 0 mm 2 m/s 761 mmHg 95%
    02:00 -18°C° 0 mm 3 m/s 761 mmHg 95%
    03:00 -18°C° 0 mm 3 m/s 761 mmHg 95%
    04:00 -18°C° 0 mm 3 m/s 761 mmHg 95%
    05:00 -19°C° 0 mm 3 m/s 762 mmHg 95%
    06:00 -19°C° 0 mm 3 m/s 762 mmHg 95%
    07:00 -18°C° 0 mm 3 m/s 762 mmHg 95%
    08:00 -18°C° 0 mm 3 m/s 763 mmHg 95%
    09:00 -17°C° 0 mm 3 m/s 763 mmHg 94%
    10:00 -16°C° 0 mm 3 m/s 763 mmHg 94%
    11:00 -16°C° 0 mm 4 m/s 763 mmHg 94%
    12:00 -15°C° 0 mm 4 m/s 763 mmHg 93%
    13:00 -14°C° 0 mm 4 m/s 763 mmHg 93%
    14:00 -14°C° 0 mm 4 m/s 763 mmHg 93%
    15:00 -12°C° 0 mm 4 m/s 763 mmHg 93%
    16:00 -12°C° 0 mm 4 m/s 763 mmHg 93%
    17:00 -12°C° 0 mm 4 m/s 763 mmHg 93%
    18:00 -13°C° 0 mm 3 m/s 763 mmHg 93%
    19:00 -13°C° 0 mm 3 m/s 763 mmHg 93%
    20:00 -13°C° 0 mm 3 m/s 763 mmHg 94%
    21:00 -13°C° 0 mm 3 m/s 763 mmHg 94%
    22:00 -13°C° 0 mm 3 m/s 763 mmHg 94%
    23:00 -13°C° 0 mm 2 m/s 762 mmHg 95%
    Arată mai mult